GW2696 Weather Reports


time (UTC)temp
F
wind
direction
speed
knots
gust
knots
rain 1hr
in
rain 24hr
in
rain mn
in
humidity
%
barometer
mb
20260504130238 50 203 9.6 13.9 0.00 0.00 0.00 39 1013.4
20260504120218 51 203 11.3 16.5 0.00 0.00 0.00 41 1013.8
20260504110239 51 203 13.9 18.2 0.00 0.00 0.00 45 1014.5
20260504100238 51 203 11.3 16.5 0.00 0.00 0.00 46 1015.3
20260504081237 54 203 11.3 16.5 0.00 0.00 0.00 36 1015.8
20260504080217 54 203 12.2 20.0 0.00 0.00 0.00 35 1015.8
20260504070345 56 203 9.6 13.0 0.00 0.00 0.00 34 1016.4
20260504060238 58 225 9.6 13.0 0.00 0.00 0.00 30 1016.1
20260504050238 60 203 5.2 7.8 0.00 0.00 0.00 26 1016.6
20260504045237 60 203 7.8 14.8 0.00 0.00 0.00 26 1016.6
20260504044216 60 225 4.3 6.1 0.00 0.00 0.00 26 1016.7
20260504043216 60 203 7.8 11.3 0.00 0.00 0.00 26 1015.8
20260504042217 61 203 8.7 13.0 0.00 0.00 0.00 26 1016.0
20260504041217 61 203 8.7 12.2 0.00 0.00 0.00 26 1016.0
20260504040237 61 180 12.2 15.6 0.00 0.00 0.00 27 1015.2
20260504035216 61 203 6.1 8.7 0.00 0.00 0.00 27 1015.0
20260504034237 61 203 11.3 14.8 0.00 0.00 0.00 27 1015.0
20260504033216 60 225 9.6 13.9 0.00 0.00 0.00 27 1014.6
20260504032216 60 203 7.0 9.6 0.00 0.00 0.00 29 1014.5
20260504031216 60 203 7.8 11.3 0.00 0.00 0.00 29 1014.3
20260504030216 61 180 6.1 7.8 0.00 0.00 0.00 29 1013.9
20260504025218 61 203 8.7 12.2 0.00 0.00 0.00 29 1013.9
20260504024220 61 203 7.0 11.3 0.00 0.00 0.00 30 1013.6
20260504023239 61 203 7.0 8.7 0.00 0.00 0.00 30 1012.7
20260504022219 62 203 7.8 8.7 0.00 0.00 0.00 30 1012.9
20260504021219 62 225 10.4 15.6 0.00 0.00 0.00 30 1013.0
20260504020239 63 203 7.8 9.6 0.00 0.00 0.00 30 1011.3
20260504015218 63 203 7.8 12.2 0.00 0.00 0.00 30 1011.7
20260504014219 63 203 12.2 14.8 0.00 0.00 0.00 29 1011.8
20260504013219 64 203 10.4 14.8 0.00 0.00 0.00 28 1010.8
20260504012219 65 203 9.6 13.9 0.00 0.00 0.00 26 1010.8
20260504011219 65 203 10.4 13.9 0.00 0.00 0.00 26 1010.9
20260504010218 66 225 8.7 13.9 0.00 0.00 0.00 25 1011.4
20260504005218 67 203 9.6 14.8 0.00 0.00 0.00 23 1011.5
20260504004219 68 158 5.2 9.6 0.00 0.00 0.00 23 1011.9
20260504003219 67 158 5.2 13.0 0.00 0.00 0.00 24 1011.5
20260504002219 66 135 2.6 4.3 0.00 0.00 0.00 25 1011.5
20260504001218 66 180 7.0 13.0 0.00 0.00 0.00 24 1011.7
20260504000219 67 203 12.2 15.6 0.00 0.00 0.00 24 1012.0
20260503235219 67 203 9.6 12.2 0.00 0.00 0.00 25 1012.3
20260503234219 67 203 7.0 11.3 0.00 0.00 0.00 26 1012.5
20260503233239 67 180 5.2 8.7 0.00 0.00 0.00 25 1012.4
20260503232218 68 180 5.2 10.4 0.00 0.00 0.00 24 1012.4
20260503231218 68 113 1.7 2.6 0.00 0.00 0.00 25 1012.4
20260503230218 68 203 8.7 13.9 0.00 0.00 0.00 25 1013.6
20260503225217 69 203 11.3 15.6 0.00 0.00 0.00 23 1013.4
20260503224218 70 158 4.3 10.4 0.00 0.00 0.00 24 1014.1
20260503223217 70 203 6.1 14.8 0.00 0.00 0.00 24 1014.6
20260503222238 71 180 7.0 9.6 0.00 0.00 0.00 23 1015.1
20260503221217 71 158 5.2 10.4 0.00 0.00 0.00 24 1015.2
20260503220218 71 180 3.5 7.8 0.00 0.00 0.00 23 1015.7
20260503215219 71 203 7.8 13.0 0.00 0.00 0.00 24 1016.1
20260503214217 71 203 8.7 12.2 0.00 0.00 0.00 25 1016.1
20260503213238 70 180 6.1 11.3 0.00 0.00 0.00 25 1016.9
20260503212218 71 180 10.4 18.2 0.00 0.00 0.00 25 1017.0
20260503211218 70 158 7.8 17.4 0.00 0.00 0.00 23 1017.3
20260503210217 72 203 12.2 18.2 0.00 0.00 0.00 21 1017.8
20260503205218 72 158 4.3 7.8 0.00 0.00 0.00 24 1017.9
20260503204218 71 135 3.5 5.2 0.00 0.00 0.00 23 1018.2
20260503203239 71 203 10.4 14.8 0.00 0.00 0.00 23 1018.4
20260503202218 70 203 9.6 14.8 0.00 0.00 0.00 24 1018.4
20260503201218 71 203 8.7 13.9 0.00 0.00 0.00 23 1018.6
20260503200238 70 158 4.3 9.6 0.00 0.00 0.00 24 1018.7
20260503195238 70 203 11.3 16.5 0.00 0.00 0.00 20 1018.7
20260503194218 69 203 7.8 10.4 0.00 0.00 0.00 26 1019.0
20260503193219 69 203 7.8 10.4 0.00 0.00 0.00 25 1019.2
20260503192218 68 203 7.8 10.4 0.00 0.00 0.00 27 1018.9
20260503191219 69 225 5.2 8.7 0.00 0.00 0.00 27 1019.5
20260503190218 71 203 10.4 14.8 0.00 0.00 0.00 24 1019.7
20260503185238 71 180 3.5 6.1 0.00 0.00 0.00 23 1020.0
20260503184218 71 90 3.5 5.2 0.00 0.00 0.00 24 1019.9
20260503183239 71 225 5.2 8.7 0.00 0.00 0.00 25 1020.1
20260503182218 71 135 2.6 5.2 0.00 0.00 0.00 24 1020.2
20260503181238 70 180 0.9 1.7 0.00 0.00 0.00 25 1019.9
20260503180218 70 135 1.7 5.2 0.00 0.00 0.00 24 1020.1
20260503175217 70 180 2.6 4.3 0.00 0.00 0.00 23 1020.2
20260503174217 69 293 0.9 3.5 0.00 0.00 0.00 25 1020.2
20260503173218 68 203 10.4 16.5 0.00 0.00 0.00 25 1019.8
20260503172239 68 180 2.6 3.5 0.00 0.00 0.00 27 1020.3
20260503171218 69 180 3.5 7.8 0.00 0.00 0.00 24 1020.6
20260503170218 68 203 3.5 5.2 0.00 0.00 0.00 28 1020.3
20260503160217 63 203 1.7 4.3 0.00 0.00 0.00 34 1020.2
20260503150238 58 180 6.1 7.8 0.00 0.00 0.00 38 1020.0
20260503140217 52 203 2.6 4.3 0.00 0.00 0.00 47 1020.8